When you browse on this site, cookies collect data to enhance your experience and personalize the content and advertising you see.
Visit our Privacy Policy to learn more. By continuing to use the site, you agree to this use of cookies and data.
  • In United Kingdom
  • List of Countries
  • For 7 days
  • Water Temperature
  • Weather Map
  • Weather Widgets
  • user-avatar
    Login

    Hourly Weather Bansko

    Today, 12 November, Tuesday

    Time Temperature Precipitation Wind Pressure Humidity
    00:00 +10°C° 0 mm 2 mps 720 mmHg 78%
    01:00 +10°C° 0 mm 2 mps 720 mmHg 80%
    02:00 +10°C° 0 mm 2 mps 720 mmHg 82%
    03:00 +12°C° 0 mm 2 mps 720 mmHg 83%
    04:00 +12°C° 0 mm 2 mps 720 mmHg 83%
    05:00 +13°C° 0 mm 2 mps 720 mmHg 84%
    06:00 +13°C° 0 mm 2 mps 720 mmHg 86%
    07:00 +13°C° 0 mm 2 mps 720 mmHg 87%
    08:00 +14°C° 0 mm 2 mps 720 mmHg 89%
    09:00 +16°C° 0 mm 2 mps 720 mmHg 82%
    10:00 +18°C° 0 mm 3 mps 720 mmHg 74%
    11:00 +20°C° 0 mm 4 mps 720 mmHg 66%
    12:00 +20°C° 0 mm 4 mps 720 mmHg 63%
    13:00 +21°C° 0 mm 4 mps 719 mmHg 61%
    14:00 +21°C° 0 mm 5 mps 719 mmHg 58%
    15:00 +20°C° 0 mm 4 mps 718 mmHg 63%
    16:00 +19°C° 0 mm 3 mps 718 mmHg 68%
    17:00 +17°C° 0 mm 3 mps 717 mmHg 74%
    18:00 +17°C° 0 mm 2 mps 717 mmHg 75%
    19:00 +16°C° 0 mm 2 mps 717 mmHg 77%
    20:00 +15°C° 0 mm 2 mps 717 mmHg 78%
    21:00 +15°C° 0 mm 2 mps 716 mmHg 77%
    22:00 +15°C° 0 mm 2 mps 716 mmHg 76%
    23:00 +14°C° 0 mm 2 mps 716 mmHg 75%

    Tomorrow, 13 November, Wednesday

    Time Temperature Precipitation Wind Pressure Humidity
    00:00 +14°C° 0 mm 2 mps 716 mmHg 75%
    01:00 +14°C° 0 mm 2 mps 715 mmHg 75%
    02:00 +13°C° 0 mm 3 mps 715 mmHg 76%
    03:00 +14°C° 0.6 mm 2 mps 715 mmHg 79%
    04:00 +14°C° 0.6 mm 2 mps 714 mmHg 83%
    05:00 +14°C° 0.6 mm 2 mps 714 mmHg 87%
    06:00 +14°C° 2.4 mm 2 mps 714 mmHg 90%
    07:00 +14°C° 2.4 mm 2 mps 714 mmHg 93%
    08:00 +14°C° 2.4 mm 2 mps 714 mmHg 96%
    09:00 +14°C° 1.7 mm 2 mps 714 mmHg 93%
    10:00 +15°C° 1.7 mm 2 mps 715 mmHg 91%
    11:00 +15°C° 1.7 mm 2 mps 715 mmHg 88%
    12:00 +15°C° 0.6 mm 2 mps 715 mmHg 88%
    13:00 +15°C° 0.6 mm 2 mps 714 mmHg 88%
    14:00 +15°C° 0.6 mm 2 mps 714 mmHg 88%
    15:00 +15°C° 0.2 mm 2 mps 714 mmHg 88%
    16:00 +15°C° 0.2 mm 2 mps 714 mmHg 89%
    17:00 +14°C° 0.2 mm 2 mps 714 mmHg 90%
    18:00 +14°C° 0.1 mm 2 mps 714 mmHg 91%
    19:00 +14°C° 0.1 mm 2 mps 714 mmHg 92%
    20:00 +13°C° 0.1 mm 1 mps 714 mmHg 93%
    21:00 +13°C° 0 mm 1 mps 715 mmHg 92%
    22:00 +13°C° 0 mm 1 mps 715 mmHg 91%
    23:00 +13°C° 0 mm 1 mps 715 mmHg 91%

    Day after tomorrow, 14 November, Thursday

    Time Temperature Precipitation Wind Pressure Humidity
    00:00 +13°C° 0.3 mm 1 mps 715 mmHg 92%
    01:00 +13°C° 0.3 mm 1 mps 715 mmHg 92%
    02:00 +13°C° 0.3 mm 1 mps 715 mmHg 93%
    03:00 +12°C° 0.6 mm 0 mps 715 mmHg 93%
    04:00 +12°C° 0.6 mm 0 mps 715 mmHg 93%
    05:00 +12°C° 0.6 mm 0 mps 715 mmHg 93%
    06:00 +12°C° 0.4 mm 0 mps 715 mmHg 93%
    07:00 +12°C° 0.4 mm 0 mps 715 mmHg 92%
    08:00 +13°C° 0.4 mm 1 mps 715 mmHg 92%
    09:00 +14°C° 0 mm 1 mps 715 mmHg 87%
    10:00 +15°C° 0 mm 1 mps 715 mmHg 83%
    11:00 +16°C° 0 mm 1 mps 715 mmHg 78%
    12:00 +16°C° 0.2 mm 1 mps 715 mmHg 77%
    13:00 +16°C° 0.2 mm 1 mps 715 mmHg 75%
    14:00 +18°C° 0.2 mm 1 mps 715 mmHg 73%
    15:00 +16°C° 0.2 mm 1 mps 715 mmHg 77%
    16:00 +15°C° 0.2 mm 1 mps 715 mmHg 81%
    17:00 +14°C° 0.2 mm 1 mps 715 mmHg 85%
    18:00 +13°C° 0 mm 1 mps 715 mmHg 86%
    19:00 +13°C° 0 mm 1 mps 715 mmHg 87%
    20:00 +12°C° 0 mm 1 mps 715 mmHg 88%
    21:00 +12°C° 0 mm 1 mps 716 mmHg 88%
    22:00 +12°C° 0 mm 1 mps 716 mmHg 89%
    23:00 +11°C° 0 mm 1 mps 716 mmHg 89%

    15 November, Friday

    Time Temperature Precipitation Wind Pressure Humidity
    00:00 +11°C° 0 mm 1 mps 716 mmHg 89%
    01:00 +11°C° 0 mm 1 mps 716 mmHg 89%
    02:00 +11°C° 0 mm 1 mps 717 mmHg 89%
    03:00 +11°C° 0 mm 1 mps 717 mmHg 89%
    04:00 +11°C° 0 mm 1 mps 717 mmHg 89%
    05:00 +11°C° 0 mm 1 mps 717 mmHg 89%
    06:00 +11°C° 0 mm 1 mps 718 mmHg 88%
    07:00 +11°C° 0 mm 1 mps 718 mmHg 87%
    08:00 +11°C° 0 mm 1 mps 719 mmHg 87%
    09:00 +13°C° 0 mm 1 mps 719 mmHg 81%
    10:00 +15°C° 0 mm 1 mps 719 mmHg 75%
    11:00 +18°C° 0 mm 1 mps 720 mmHg 69%
    12:00 +18°C° 0 mm 1 mps 720 mmHg 66%
    13:00 +18°C° 0 mm 2 mps 720 mmHg 63%
    14:00 +19°C° 0 mm 2 mps 720 mmHg 59%
    15:00 +17°C° 0 mm 2 mps 720 mmHg 66%
    16:00 +16°C° 0 mm 1 mps 720 mmHg 73%
    17:00 +14°C° 0 mm 1 mps 720 mmHg 80%
    18:00 +14°C° 0 mm 1 mps 720 mmHg 81%
    19:00 +13°C° 0 mm 1 mps 720 mmHg 82%
    20:00 +12°C° 0 mm 1 mps 721 mmHg 84%
    21:00 +12°C° 0 mm 1 mps 721 mmHg 84%
    22:00 +12°C° 0 mm 1 mps 721 mmHg 84%
    23:00 +11°C° 0 mm 1 mps 721 mmHg 85%

    16 November, Saturday

    Time Temperature Precipitation Wind Pressure Humidity
    00:00 +11°C° 0 mm 1 mps 721 mmHg 84%
    01:00 +11°C° 0 mm 1 mps 721 mmHg 84%
    02:00 +11°C° 0 mm 1 mps 722 mmHg 83%
    03:00 +11°C° 0 mm 1 mps 722 mmHg 83%
    04:00 +11°C° 0 mm 1 mps 722 mmHg 82%
    05:00 +11°C° 0 mm 1 mps 722 mmHg 82%
    06:00 +11°C° 0 mm 1 mps 722 mmHg 81%
    07:00 +11°C° 0 mm 1 mps 722 mmHg 81%
    08:00 +11°C° 0 mm 1 mps 722 mmHg 80%
    09:00 +13°C° 0 mm 1 mps 722 mmHg 75%
    10:00 +14°C° 0 mm 1 mps 723 mmHg 70%
    11:00 +16°C° 0 mm 1 mps 723 mmHg 65%
    12:00 +18°C° 0 mm 1 mps 722 mmHg 63%
    13:00 +18°C° 0 mm 1 mps 722 mmHg 61%
    14:00 +19°C° 0 mm 1 mps 722 mmHg 59%
    15:00 +16°C° 0 mm 1 mps 721 mmHg 66%
    16:00 +15°C° 0 mm 1 mps 721 mmHg 72%
    17:00 +14°C° 0 mm 1 mps 721 mmHg 79%
    18:00 +13°C° 0 mm 1 mps 721 mmHg 79%
    19:00 +13°C° 0 mm 1 mps 721 mmHg 79%
    20:00 +12°C° 0 mm 1 mps 721 mmHg 79%
    21:00 +12°C° 0 mm 1 mps 721 mmHg 79%
    22:00 +12°C° 0 mm 1 mps 721 mmHg 79%
    23:00 +11°C° 0 mm 1 mps 721 mmHg 79%

    17 November, Sunday

    Time Temperature Precipitation Wind Pressure Humidity
    00:00 +11°C° 0 mm 1 mps 721 mmHg 79%
    01:00 +11°C° 0 mm 1 mps 721 mmHg 79%
    02:00 +11°C° 0 mm 1 mps 721 mmHg 79%
    03:00 +10°C° 0 mm 1 mps 721 mmHg 79%
    04:00 +10°C° 0 mm 1 mps 721 mmHg 78%
    05:00 +10°C° 0 mm 1 mps 720 mmHg 78%
    06:00 +10°C° 0 mm 1 mps 720 mmHg 77%
    07:00 +10°C° 0 mm 1 mps 721 mmHg 76%
    08:00 +10°C° 0 mm 1 mps 721 mmHg 74%
    09:00 +12°C° 0 mm 1 mps 721 mmHg 68%
    10:00 +14°C° 0 mm 1 mps 721 mmHg 61%
    11:00 +16°C° 0 mm 1 mps 721 mmHg 55%
    12:00 +18°C° 0 mm 1 mps 720 mmHg 53%
    13:00 +17°C° 0 mm 2 mps 720 mmHg 51%
    14:00 +18°C° 0 mm 2 mps 720 mmHg 48%
    15:00 +16°C° 0 mm 2 mps 719 mmHg 55%
    16:00 +15°C° 0 mm 2 mps 719 mmHg 61%
    17:00 +13°C° 0 mm 2 mps 719 mmHg 67%
    18:00 +13°C° 0 mm 2 mps 719 mmHg 69%
    19:00 +12°C° 0 mm 2 mps 719 mmHg 70%
    20:00 +12°C° 0 mm 2 mps 719 mmHg 71%
    21:00 +10°C° 0 mm 2 mps 719 mmHg 73%
    22:00 +10°C° 0 mm 2 mps 719 mmHg 74%
    23:00 +10°C° 0 mm 2 mps 719 mmHg 76%
    Show more